MST,Max TemperatureF,Mean TemperatureF,Min TemperatureF,Max Dew PointF,MeanDew PointF,Min DewpointF,Max Humidity, Mean Humidity, Min Humidity, Max Sea Level PressureIn, Mean Sea Level PressureIn, Min Sea Level PressureIn, Max VisibilityMiles, Mean VisibilityMiles, Min VisibilityMiles, Max Wind SpeedMPH, Mean Wind SpeedMPH, Max Gust SpeedMPH,PrecipitationIn, CloudCover, Events, WindDirDegrees
2012-11-1,76,58,41,20,18,15,37,24,11,30.21,30.13,30.04,10,10,10,12,7,,0.00,0,,299
2012-11-2,75,58,41,24,19,14,37,23,14,30.14,30.07,30.01,10,10,10,10,6,,0.00,1,,303
2012-11-3,72,60,49,29,25,20,38,28,19,30.21,30.15,30.07,10,10,10,12,6,16,0.00,1,,334
2012-11-4,73,57,41,24,20,16,48,29,13,30.32,30.25,30.19,10,10,10,15,7,17,0.00,0,,327
2012-11-5,72,56,40,21,17,11,33,23,15,30.36,30.27,30.20,10,10,10,9,6,,0.00,0,,325
2012-11-6,74,56,39,27,22,17,45,29,16,30.32,30.25,30.20,10,10,10,13,5,17,0.00,0,,317
2012-11-7,75,58,41,25,21,19,43,26,15,30.28,30.17,30.06,10,10,10,9,5,,0.00,0,,289
2012-11-8,75,57,39,31,24,19,46,29,17,30.11,30.03,29.96,10,10,10,12,5,20,0.00,1,,210
2012-11-9,67,57,47,45,34,21,69,42,28,30.03,29.94,29.81,10,10,10,17,8,23,0.00,3,,176
2012-11-10,64,52,39,40,28,14,58,37,25,29.93,29.81,29.72,10,10,10,29,19,41,0.00,1,,241
2012-11-11,48,40,31,19,10,0,52,32,15,30.38,30.17,29.93,10,10,10,23,14,38,0.00,0,,304
2012-11-12,50,36,21,13,5,-3,57,32,13,30.50,30.40,30.31,10,10,10,15,7,18,0.00,0,,339
2012-11-13,57,40,22,8,3,-3,36,25,14,30.36,30.30,30.22,10,10,10,14,7,16,0.00,0,,334
2012-11-14,61,44,28,13,8,4,39,26,14,30.39,30.29,30.20,10,10,10,12,7,,0.00,0,,319
2012-11-15,62,46,30,15,11,7,39,26,15,30.34,30.28,30.23,10,10,10,14,8,18,0.00,0,,342
2012-11-16,65,53,41,24,19,12,40,28,16,30.34,30.27,30.19,10,10,10,12,6,17,0.00,1,,178
2012-11-17,61,48,35,26,21,15,47,34,24,30.30,30.21,30.15,10,10,10,13,6,,0.00,1,,194
2012-11-18,63,52,42,47,40,25,92,69,36,30.23,30.18,30.13,10,10,10,12,4,,0.03,3,Rain,183
2012-11-19,64,50,35,40,32,27,100,59,25,30.35,30.29,30.22,10,10,10,10,4,17,0.00,0,,311
2012-11-20,64,48,33,28,21,17,71,37,17,30.38,30.30,30.23,10,10,10,12,6,,0.00,0,,299
2012-11-21,58,49,40,27,20,15,55,34,24,30.28,30.20,30.13,10,10,10,10,6,,0.00,2,,335
2012-11-22,68,51,34,25,23,20,57,38,17,30.33,30.21,30.14,10,10,10,10,7,,0.00,0,,326
2012-11-23,60,48,35,27,24,20,59,42,25,30.53,30.43,30.34,10,10,10,13,7,17,0.00,0,,321
2012-11-24,60,44,27,24,21,18,69,44,24,30.40,30.28,30.13,10,10,10,8,4,,0.00,0,,274
2012-11-25,66,46,26,26,21,17,67,41,20,30.15,30.06,29.95,10,10,10,10,4,,0.00,0,,288
2012-11-26,67,48,29,26,21,16,69,37,16,30.32,30.15,30.04,10,10,10,9,4,,0.00,0,,321
2012-11-27,60,44,29,24,22,18,69,45,24,30.43,30.35,30.29,10,10,10,12,7,,0.00,0,,332
2012-11-28,64,47,30,32,23,17,63,43,23,30.39,30.29,30.19,10,10,10,12,6,,0.00,0,,327
2012-11-29,67,50,34,30,25,22,70,43,21,30.26,30.21,30.15,10,10,10,9,5,,0.00,0,,280
2012-11-30,68,52,35,26,23,16,62,38,17,30.25,30.18,30.11,10,10,10,12,6,16,0.03,0,,248